• Join FlightAware (Why Join?)
  • Login
  • US Flag GB Flag 
21:03 EDT


 

Airport Tracker/Info


-or-


 

Live Flight TrackerFlight Track Log ✈ N317FL ✈ 03-May-2013 ✈ KPBI - KJAX

Flight Track Log - Related Links

Times and Time Zones

All times are in EDT time to prevent confusion due to time zone crossing. See the N317FL flight status page for this flight to view local times or setup timezone preferences in your user account.

Time Position Orientation Groundspeed Altitude Reporting Facility
EDT Latitude Longitude Course Direction KTS MPH feet Rate Location/Type
08:32 26.7020 -80.1120 322° Northwest 168 193 1,600  Level FlightAware
08:33 26.7180 -80.1260 322° Northwest 189 217 1,700 120 Climbing FlightAware
08:33 26.7290 -80.1360 321° Northwest 193 222 1,700  Level FlightAware
08:34 26.7570 -80.1630 319° Northwest 192 221 1,700 600 Level FlightAware
08:34 26.7610 -80.1760 289° West 199 229 2,300 3,600 Climbing FlightAware
08:35 26.7700 -80.2050 289° West 183 211 4,400 3,780 Climbing FlightAware
08:35 26.7780 -80.2280 291° West 178 205 5,800 3,000 Climbing FlightAware
08:35 26.7850 -80.2400 303° West 186 214 6,400 2,160 Climbing FlightAware
08:35 26.7950 -80.2510 316° Northwest 203 234 6,900 2,100 Climbing FlightAware
08:36 26.8170 -80.2770 313° West 240 276 8,000 2,940 Climbing FlightAware
08:36 26.8370 -80.3010 313° West 260 299 9,600 2,640 Climbing FlightAware
08:37 26.8800 -80.3400 321° Northwest 273 314 11,100 2,520 Climbing FlightAware
08:38 26.9260 -80.3610 338° Northwest 285 328 13,200 2,820 Climbing FlightAware
08:38 26.9790 -80.3860 337° Northwest 311 358 14,900 1,380 Climbing FlightAware
08:39 27.0420 -80.4160 337° Northwest 345 397 15,200 540 Climbing FlightAware
08:40 27.1020 -80.4440 337° Northwest 347 399 15,700 2,280 Climbing FlightAware
08:41 27.1610 -80.4740 336° Northwest 320 368 18,300 3,480 Climbing FlightAware
08:41 27.2140 -80.5160 325° Northwest 318 366 20,700 2,880 Climbing FlightAware
08:42 27.2630 -80.5560 324° Northwest 318 366 22,400 1,620 Climbing FlightAware
08:43 27.3190 -80.5980 326° Northwest 345 397 23,000 420 Climbing FlightAware
08:43 27.3790 -80.6330 333° Northwest 351 404 23,000  Level FlightAware
08:44 27.4430 -80.6710 332° Northwest 350 403 23,000  Level FlightAware
08:45 27.5040 -80.7080 332° Northwest 366 421 23,000 960 Level FlightAware
08:45 27.5640 -80.7440 332° Northwest 351 404 24,300 1,380 Climbing FlightAware
08:46 27.6290 -80.7830 332° Northwest 380 437 25,000 480 Climbing FlightAware
08:47 27.6930 -80.8210 332° Northwest 402 463 25,000  Level FlightAware
08:48 27.7650 -80.8650 332° Northwest 404 465 25,000  Level FlightAware
08:49 27.8810 -80.9340 332° Northwest 404 465 25,000  Level FlightAware
08:51 28.1110 -81.0730 332° Northwest 381 438 25,000  Level FlightAware
08:52 28.2300 -81.1450 332° Northwest 386 444 25,000  Level FlightAware
08:54 28.3440 -81.2140 332° Northwest 401 461 25,000  Level FlightAware
08:55 28.4670 -81.2890 332° Northwest 406 467 25,000 -540 Level FlightAware
08:58 28.8390 -81.4490 339° North 425 489 22,600 -780 Descending FlightAware
09:00 28.9700 -81.5220 334° Northwest 408 470 21,300 -1,020 Descending FlightAware
09:01 29.0990 -81.5460 351° North 377 434 20,200 -840 Descending FlightAware
09:02 29.2050 -81.5560 355° North 373 429 19,500 -780 Descending FlightAware
09:03 29.2710 -81.5500 North 373 429 18,900 -480 Descending FlightAware
09:03 29.3300 -81.5510 359° North 373 429 18,900  Level FlightAware
09:04 29.3880 -81.5520 359° North 373 429 18,900  Level FlightAware
09:05 29.4620 -81.5540 359° North 373 429 18,900  Level FlightAware
09:05 29.5200 -81.5550 359° North 373 429 18,900  Level FlightAware
09:06 29.5790 -81.5560 359° North 373 429 18,900 -3,900 Level FlightAware
09:06 29.6706 -81.5372 359° North 347 399 15,000 -5,280 Descending Jacksonville Center
09:07 29.7019 -81.5417 353° North 354 407 14,700 -720 Descending Jacksonville Center
09:07 29.7750 -81.5525 353° North 353 406 14,200 -720 Descending Jacksonville Center
09:08 29.7981 -81.5569 351° North 348 400 14,000 -1,020 Descending Jacksonville Center
09:09 29.8733 -81.5703 351° North 346 398 13,200 -1,020 Descending Jacksonville Center
09:09 29.8944 -81.5750 349° North 348 400 13,000 -1,020 Descending Jacksonville Center
09:09 29.9633 -81.5883 350° North 353 406 12,300 -1,020 Descending Jacksonville Center
09:10 29.9864 -81.6000 336° Northwest 353 406 12,000 -1,020 Descending Jacksonville Center
09:10 30.0369 -81.6258 336° Northwest 319 367 11,400 -1,500 Descending Jacksonville Center
09:11 30.1164 -81.6608 339° North 300 345 9,800 -1,920 Descending Jacksonville Center
09:12 30.2003 -81.6789 349° North 300 345 7,600 -2,100 Descending Jacksonville Center
09:13 30.2633 -81.7333 323° Northwest 287 330 5,600 -1,380 Descending Jacksonville Center
09:14 30.3244 -81.7953 319° Northwest 281 323 4,900 -840 Descending Jacksonville Center
09:15 30.3811 -81.8475 322° Northwest 245 282 4,000 -480 Descending Jacksonville Center
09:16 30.4317 -81.8881 325° Northwest 239 275 4,000  Level Jacksonville Center
09:17 30.4944 -81.9139 340° North 213 245 4,000  Level Jacksonville Center
09:19 30.5553 -81.9253 351° North 177 204 4,000  Level Jacksonville Center
09:20 30.5967 -81.9103 17° North 165 190 4,000 -540 Level Jacksonville Center
09:20 30.5944 -81.8717 94° East 147 169 3,000 -1,080 Descending Jacksonville Center
09:21 30.5817 -81.8308 110° East 132 152 2,000 -480 Descending Jacksonville Center
09:23 30.5603 -81.7972 126° Southeast 108 124 2,000 -180 Level Jacksonville Center
09:24 30.5433 -81.7733 129° Southeast 98 113 1,700 -480 Descending Jacksonville Center
09:25 30.5222 -81.7472 133° Southeast 118 136 1,100 -660 Descending Jacksonville Center
09:26 30.4992 -81.7161 131° Southeast 126 145 400 -720 Descending Jacksonville Center
09:28 30.4941 -81.6879 90° East  Level Estimated